[Date Prev][Date Next][Thread Prev][Thread Next] - [Date Index][Thread Index][Author Index]
2 Line ISS Keps 3-5
- Subject: [sarex] 2 Line ISS Keps 3-5
- From: "Dave Larsen PhD" <doc@xxxxxxxxxxx>
- Date: Fri, 4 Mar 2005 20:21:45 -0800
ISS
1 25544U 98067A 05063.81204861 .00008982 00000-0 76469-4 0 9447
2 25544 51.6460 74.8120 0004166 153.4900 203.0061 15.70448648359269
----
Via the sarex mailing list at AMSAT.ORG courtesy of AMSAT-NA.
To unsubscribe, send "unsubscribe sarex" to Majordomo@amsat.org
AMSAT Home